Chippewa, MI

1:19 PM EDT on June 22, 2017 (GMT -0400)
Chippewa County International

Weather History for KCIU - December, 2011

Change the Weather History Date:

Saturday, December 24, 2011

  Actual Average Record
Temperature  
Mean Temperature 26 °F -  
Max Temperature 32 °F 25 °F 53 °F (2015)
Min Temperature 19 °F 7 °F -11 °F (1983)
Degree Days  
Heating Degree Days 40    
Moisture  
Dew Point 22 °F    
Average Humidity 84    
Maximum Humidity 93    
Minimum Humidity 75    
Precipitation  
Precipitation 0.00 in - - ()
Sea Level Pressure  
Sea Level Pressure 30.14 in    
Wind  
Wind Speed 11 mph (SE)    
Max Wind Speed 15 mph    
Max Gust Speed 21 mph    
Visibility 9 miles    
Events      
Averages and records for this station are not official NWS values.
T = Trace of Precipitation, MM = Missing Value Source: NWS Daily Summary

Daily Weather History Graph

Daily Weather History Graph

Search for Another Location

Airport or City:

Trip Planner

Search our weather history database for the weather conditions in past years. The results will help you decide how hot, cold, wet, or windy it might be!

Date:

Astronomy

Dec. 24, 2011 Rise Set
Actual Time 8:19 AM EST 4:55 PM EST
Civil Twilight 7:44 AM EST 5:30 PM EST
Nautical Twilight 7:05 AM EST 6:08 PM EST
Astronomical Twilight 6:29 AM EST 6:45 PM EST
Moon 8:06 AM EST (12/24) 5:08 PM EST (12/24)
Length of Visible Light 9h 46m
Length of Day
8h 36m
Waning Crescent, 0% of the Moon is Illuminated
Dec 24
Waning Crescent
Dec 24
New
Jan 1
First Quarter
Jan 9
Full
Jan 16
Last Quarter

Hourly Weather History & Observations

Time (EST) Temp. Windchill Dew Point Humidity Pressure Visibility Wind Dir Wind Speed Gust Speed Precip Events Conditions
12:15 AM 19.4 °F 7.2 °F 15.8 °F 86% 30.20 in 10.0 mi East 11.5 mph - N/A   Overcast
12:35 AM 19.4 °F 7.9 °F 15.8 °F 86% 30.20 in 10.0 mi East 10.4 mph - N/A   Overcast
12:55 AM 21.2 °F 10.1 °F 17.6 °F 86% 30.20 in 10.0 mi East 10.4 mph - N/A   Overcast
1:15 AM 19.4 °F 7.2 °F 15.8 °F 86% 30.20 in 10.0 mi ENE 11.5 mph - N/A   Overcast
1:35 AM 19.4 °F 6.0 °F 15.8 °F 86% 30.20 in 10.0 mi ENE 13.8 mph - N/A   Overcast
2:35 AM 19.4 °F 7.2 °F 15.8 °F 86% 30.22 in 10.0 mi East 11.5 mph - N/A   Overcast
2:55 AM 21.2 °F 9.5 °F 15.8 °F 80% 30.23 in 9.0 mi East 11.5 mph - N/A   Overcast
3:15 AM 21.2 °F 8.3 °F 15.8 °F 80% 30.22 in 10.0 mi East 13.8 mph - N/A   Overcast
3:35 AM 21.2 °F 7.8 °F 15.8 °F 80% 30.22 in 10.0 mi East 15.0 mph - N/A   Overcast
3:55 AM 21.2 °F 8.3 °F 17.6 °F 86% 30.22 in 4.0 mi East 13.8 mph - N/A   Overcast
4:15 AM 21.2 °F 7.8 °F 17.6 °F 86% 30.22 in 9.0 mi East 15.0 mph - N/A   Overcast
4:35 AM 21.2 °F 8.9 °F 17.6 °F 86% 30.23 in 10.0 mi East 12.7 mph - N/A   Overcast
4:55 AM 21.2 °F 9.5 °F 19.4 °F 93% 30.23 in 10.0 mi East 11.5 mph - N/A   Overcast
5:15 AM 23.0 °F 12.4 °F 19.4 °F 86% 30.22 in 10.0 mi East 10.4 mph - N/A   Overcast
5:35 AM 23.0 °F 12.4 °F 19.4 °F 86% 30.23 in 10.0 mi East 10.4 mph - N/A   Overcast
5:55 AM 23.0 °F 11.1 °F 19.4 °F 86% 30.22 in 10.0 mi East 12.7 mph - N/A   Overcast
6:35 AM 23.0 °F 13.1 °F 19.4 °F 86% 30.23 in 10.0 mi ESE 9.2 mph - N/A   Overcast
6:55 AM 23.0 °F 12.4 °F 19.4 °F 86% 30.23 in 10.0 mi ESE 10.4 mph - N/A   Overcast
7:15 AM 23.0 °F 13.1 °F 19.4 °F 86% 30.24 in 10.0 mi ESE 9.2 mph - N/A   Overcast
7:35 AM 23.0 °F 12.4 °F 19.4 °F 86% 30.24 in 10.0 mi ESE 10.4 mph - N/A   Overcast
7:55 AM 23.0 °F 11.7 °F 19.4 °F 86% 30.23 in 10.0 mi East 11.5 mph - N/A   Overcast
8:15 AM 23.0 °F 12.4 °F 19.4 °F 86% 30.23 in 10.0 mi East 10.4 mph - N/A   Overcast
8:35 AM 23.0 °F 11.1 °F 19.4 °F 86% 30.23 in 10.0 mi East 12.7 mph - N/A   Overcast
8:55 AM 24.8 °F 15.3 °F 19.4 °F 80% 30.24 in 10.0 mi ESE 9.2 mph - N/A   Overcast
9:15 AM 24.8 °F 14.6 °F 19.4 °F 80% 30.24 in 9.0 mi East 10.4 mph - N/A   Overcast
9:35 AM 24.8 °F 14.6 °F 19.4 °F 80% 30.24 in 9.0 mi ESE 10.4 mph - N/A   Overcast
9:55 AM 24.8 °F 14.6 °F 19.4 °F 80% 30.24 in 3.0 mi ESE 10.4 mph - N/A   Overcast
10:35 AM 24.8 °F 14.0 °F 21.2 °F 86% 30.23 in 6.0 mi ESE 11.5 mph - N/A   Overcast
10:55 AM 26.6 °F 16.2 °F 21.2 °F 80% 30.23 in 10.0 mi SE 11.5 mph - N/A   Overcast
11:15 AM 26.6 °F 16.2 °F 23.0 °F 86% 30.22 in 6.0 mi SSE 11.5 mph - N/A   Overcast
11:35 AM 28.4 °F 19.1 °F 23.0 °F 80% 30.20 in 5.0 mi SE 10.4 mph - N/A   Overcast
11:55 AM 28.4 °F 20.4 °F 24.8 °F 86% 30.19 in 8.0 mi SSE 8.1 mph - N/A   Overcast
12:15 PM 28.4 °F 18.5 °F 24.8 °F 86% 30.18 in 10.0 mi SSE 11.5 mph - N/A   Overcast
12:35 PM 28.4 °F 18.5 °F 24.8 °F 86% 30.16 in 9.0 mi South 11.5 mph - N/A   Overcast
12:55 PM 28.4 °F 19.7 °F 24.8 °F 86% 30.15 in 10.0 mi South 9.2 mph - N/A   Overcast
1:15 PM 28.4 °F 21.2 °F 23.0 °F 80% 30.15 in 10.0 mi South 6.9 mph 16.1 mph N/A   Overcast
1:35 PM 28.4 °F 20.4 °F 23.0 °F 80% 30.13 in 10.0 mi South 8.1 mph - N/A   Overcast
1:55 PM 28.4 °F 19.7 °F 24.8 °F 86% 30.12 in 10.0 mi SSE 9.2 mph - N/A   Overcast
2:35 PM 28.4 °F 19.7 °F 24.8 °F 86% 30.10 in 9.0 mi South 9.2 mph - N/A   Overcast
2:55 PM 28.4 °F 20.4 °F 24.8 °F 86% 30.09 in 9.0 mi SSE 8.1 mph - N/A   Overcast
3:15 PM 28.4 °F 20.4 °F 24.8 °F 86% 30.08 in 10.0 mi SSE 8.1 mph - N/A   Overcast
3:35 PM 28.4 °F 19.1 °F 24.8 °F 86% 30.07 in 10.0 mi SSE 10.4 mph - N/A   Overcast
3:55 PM 28.4 °F 19.7 °F 24.8 °F 86% 30.06 in 10.0 mi SSE 9.2 mph - N/A   Overcast
4:15 PM 28.4 °F 19.1 °F 24.8 °F 86% 30.06 in 10.0 mi South 10.4 mph - N/A   Overcast
4:35 PM 28.4 °F 18.5 °F 23.0 °F 80% 30.04 in 9.0 mi SSE 11.5 mph 17.3 mph N/A   Overcast
4:55 PM 28.4 °F 18.0 °F 24.8 °F 86% 30.04 in 10.0 mi SSE 12.7 mph 17.3 mph N/A   Overcast
5:15 PM 30.2 °F 22.6 °F 24.8 °F 80% 30.03 in 10.0 mi South 8.1 mph - N/A   Overcast
5:35 PM 30.2 °F 20.8 °F 24.8 °F 80% 30.03 in 10.0 mi South 11.5 mph - N/A   Overcast
5:55 PM 30.2 °F 20.8 °F 24.8 °F 80% 30.02 in 10.0 mi South 11.5 mph 17.3 mph N/A   Overcast
6:55 PM 30.2 °F 21.3 °F 24.8 °F 80% 30.01 in 10.0 mi South 10.4 mph - N/A   Overcast
7:15 PM 30.2 °F 21.9 °F 24.8 °F 80% 30.00 in 6.0 mi South 9.2 mph - N/A   Overcast
7:35 PM 30.2 °F 21.3 °F 24.8 °F 80% 29.99 in 9.0 mi South 10.4 mph 16.1 mph N/A   Overcast
7:55 PM 30.2 °F 21.9 °F 24.8 °F 80% 29.99 in 9.0 mi South 9.2 mph 16.1 mph N/A   Overcast
8:15 PM 30.2 °F 21.3 °F 24.8 °F 80% 29.97 in 10.0 mi South 10.4 mph - N/A   Overcast
8:35 PM 30.2 °F 20.2 °F 26.6 °F 86% 29.96 in 10.0 mi South 12.7 mph - N/A   Overcast
8:55 PM 30.2 °F 20.8 °F 26.6 °F 86% 29.94 in 10.0 mi South 11.5 mph 16.1 mph N/A   Overcast
9:15 PM 32.0 °F 23.6 °F 24.8 °F 75% 29.93 in 10.0 mi South 10.4 mph 16.1 mph N/A   Overcast
9:35 PM 32.0 °F 23.6 °F 26.6 °F 80% 29.92 in 10.0 mi South 10.4 mph 17.3 mph N/A   Overcast
9:55 PM 32.0 °F 24.2 °F 24.8 °F 75% 29.91 in 10.0 mi South 9.2 mph 20.7 mph N/A   Overcast
11:15 PM 32.0 °F 26.4 °F 24.8 °F 75% 29.89 in 10.0 mi South 5.8 mph - N/A   Overcast
11:35 PM 32.0 °F 25.6 °F 24.8 °F 75% 29.88 in 10.0 mi SSE 6.9 mph - N/A   Overcast
11:55 PM 32.0 °F 27.5 °F 26.6 °F 80% 29.88 in 10.0 mi South 4.6 mph - N/A   Overcast